Location: Sweet Grass
(48.9965°N, 111.9649°W)
Time: 13:52:10
(UTC+00:00)

Envisat - Pass Details

Date: 12 December 2022
Orbit: 763 x 765 km, 98.2° (Epoch: 06 February)

Event Time Altitude Azimuth Distance (km) Brightness Sun altitude
Rises 12:03:27 0° 12° (NNE) 3,246 6.4 -29.9°
Reaches altitude 10° 12:05:46 10° 11° (N) 2,315 5.6 -29.5°
Enters shadow 12:06:57 17° 9° (N) 1,855 5.0 -29.3°
